CZ-3B DEB, 42471

Orbit data source: Space-Track

CZ-3B DEB, 42471 is space debris in HEO originally from a launch on Mon, 19 Dec 2011 UTC launched from the Xichang Space Center, China (XSC). Debris objects in space refer to the collection of defunct objects orbiting the Earth. Examples of debris include non-operational satellites, rocket bodies, and fragments generated from explosions, collisions, or faulty payload assembly.

Loading next visibility...
Identifier
42471, 2011-077AL
Orbit
HEO
Country
Flag of CNCN / PRC
Related business
Manufacturer
CALT
Mission
Spacecraft
Bus & Motor
Unknown
Mass
Unknown
Launch date (UTC)
2011-12-19 (14 years ago)
Launch vehicle
Unknown
Launch site
Xichang Space Center, China (XSC)
Object type
Payload
Rocket body
Debris
Shape & HBR
Unknown shape, 0.2 m
Radar Cross Section
Medium (>0.1 m² and <1 m²)

Expand to show TLE details & history
Last TLE update: 12 hours ago

TLE from 12 hours ago
0 CZ-3B DEB
1 42471U 11077AL  25298.36763777 -.00000167  00000-0  19343-2 0  9993
2 42471  26.4588  13.2646 7460802  17.1098 358.3955  1.89239427 30240
Epoch: 2025-10-25T08:49Z
TLE epoch observation values (Epoch: 2025-10-25T08:49:23.903Z)
Latitude
-0.00029°
Longitude
-153.07672°
Altitude
728.21 km
Speed
9.886 km/s
True Right ascension
00h 53m 05s
True Declination
0° 00' 01"
Sunlit
Object was in full shadow at epoch
Visualization orbit readout
Latitude
Unknown
Longitude
Unknown
Altitude
Unknown
Speed
Unknown
Apparent Right ascension
Unknown
Apparent Declination
Unknown
Sunlit
N/A
Visualization observer readout
Local Sidereal Time
15:59:48
Azimuth
Unknown
Elevation
Unknown
Doppler factor
Unknown
Orbital elements
Apogee altitude
41,837.166 km
Perigee altitude
633.465 km
Semi-major axis
27,613.453 km
Eccentricity
0.74608
Inclination
26.4588°
RAAN
13.2646°
Arg. of periapsis
17.1098°
True anomaly
343.62265°
Mean anomaly
358.3955°
Eccentric anomaly
353.71803°
Mean motion
0.473 °/min
Orbital period
761.1 mins
BSTAR
0.0019343
Loading maneuver chart data...
Computing Atmospheric mass density...
Loading historical data...
Loading historical data...
Loading historical data...
Loading historical data...
Loading historical data...
Loading historical data...
Loading historical data...

Documentation

Showing up to 5 results
|